Cloud_Cover
82 96 100 88 100 59 5 5 0 0 0 0 0 0 0 0 0 0 0 0 5 10 65 76 12 5 5 5 0 5 5 4 44 79 33 84 10 2 4 5 5 5 14
23 94 100 99 21 36 65 60 1 0 1 1 5 0 0 0 0 0 1 4 5 10 7 5 4 3 0 0 0 0 0 5 5 29 57 7 27 10 30 52 82 100 93
5 93 88 100 39 12 96 98 89 79 93 5 2 0 0 0 3 5 5 5 5 2 0 0 0 0 0 0 0 0 0 0 3 4 12 18 3 1 26 51 52 33 8
5 8 81 10 50 6 51 100 100 93 88 5 4 5 5 3 4 5 4 5 5 0 0 0 4 5 2 0 0 0 4 3 1 5 5 3 1 0 0 0 0 1 1
5 6 99 64 5 5 5 6 49 100 100 100 100 94 60 5 5 2 4 5 0 0 0 0 0 0 0 0 0 3 5 7 5 5 5 6 22 5 4 5 0 0 0
56 55 76 100 5 36 19 5 5 4 53 98 100 99 39 4 2 0 0 0 0 0 1 1 0 2 3 38 77 36 7 5 4 2 0 14 72 90 77 4 1 0 0
5 5 5 3 5 75 100 100 22 0 0 0 0 0 0 0 0 0 0 1 4 5 5 5 12 6 6 5 5 5 5 5 4 5 8 19 4 3 3 4 5 12 42
2 5 5 0 5 77 100 100 76 5 2 5 1 5 1 0 0 4 5 17 11 7 48 62 43 83 98 16 5 5 5 5 4 4 0 0 0 0 0 3 57 67 5
3 5 0 0 0 5 13 100 90 43 49 20 5 5 39 71 62 31 33 30 70 82 100 100 99 58 12 8 5 5 5 5 0 0 0 0 0 2 5 51 67 75 48
0 1 0 0 0 0 7 9 18 98 53 43 74 74 84 60 37 6 29 80 99 79 67 66 33 41 7 5 5 5 0 0 0 0 0 0 1 5 4 1 4 11 39
0 0 0 0 0 4 5 28 68 8 8 22 91 93 56 12 77 68 56 18 5 5 4 4 5 5 5 5 2 0 0 0 0 0 0 5 4 0 0 0 0 5 11
0 0 0 0 4 5 74 10 5 5 8 91 89 100 99 88 41 56 5 5 5 3 5 5 5 5 5 0 0 0 0 0 0 0 3 3 0 0 0 0 3 5 43
0 0 0 2 63 92 18 48 83 92 100 100 100 78 12 5 5 5 5 5 5 5 5 5 5 2 0 0 0 0 0 0 0 0 0 0 0 0 1 5 5 81 80
0 5 5 5 60 96 62 79 97 100 96 89 49 9 5 9 15 5 5 5 5 5 5 3 0 0 0 0 0 0 0 0 0 0 0 0 5 5 5 5 58 85 5
5 5 5 84 90 96 98 100 84 77 94 100 92 32 50 32 27 20 5 16 5 5 0 0 0 0 0 0 0 0 0 0 0 4 4 4 5 5 55 98 84 83 82
18 31 5 55 99 99 82 70 100 100 100 99 100 84 72 12 5 5 5 5 4 0 0 0 0 0 0 0 0 5 4 5 5 5 5 5 5 18 94 95 100 100 100
100 100 100 100 99 77 82 100 100 100 100 98 86 42 5 5 5 4 5 0 0 0 0 0 0 0 0 0 2 5 5 14 5 32 5 5 38 69 86 15 75 87 39
100 100 100 100 96 80 100 100 100 100 77 33 7 5 5 4 0 0 0 0 0 0 0 0 0 0 0 0 5 13 18 6 57 65 5 88 68 88 78 89 100 11 0
100 99 99 100 40 82 88 99 95 9 5 5 2 5 0 0 0 0 0 0 0 0 0 0 0 0 0 2 6 73 21 26 60 16 97 100 36 82 100 100 34 5 5
100 94 92 36 47 78 100 41 47 94 7 5 0 0 0 0 0 0 0 0 0 0 0 0 0 0 0 5 72 98 70 39 24 83 80 19 91 100 100 100 98 41 7
98 58 8 31 100 91 70 100 94 8 5 0 0 0 1 2 0 0 2 0 0 0 0 0 0 2 5 29 83 100 100 88 97 94 40 25 26 100 100 100 43 46 100
39 57 87 100 17 60 100 52 5 5 1 0 1 4 2 2 1 0 0 4 1 0 0 0 4 5 41 68 97 100 100 100 100 78 51 56 99 100 100 33 93 100 96
98 100 55 7 42 42 77 5 5 2 0 4 5 5 5 0 0 1 5 4 1 0 0 5 40 46 5 23 31 95 100 100 100 92 100 94 6 93 33 38 89 79 76
84 51 6 6 41 59 45 63 2 5 5 5 5 5 0 2 5 0 0 4 0 4 5 67 97 72 11 57 12 100 98 99 90 88 22 5 5 99 82 7 21 95 100
50 5 5 5 22 95 59 5 8 6 5 5 0 0 4 3 0 4 5 1 5 18 84 79 97 94 98 90 100 100 100 100 100 100 5 6 92 57 14 15 97 100 100
24 84 33 59 94 18 5 5 5 5 5 5 0 2 0 3 1 5 0 5 5 30 16 91 100 100 100 100 100 100 100 100 100 83 5 68 92 99 95 100 100 100 100